Regional Weather Roundup
Issued by NWS Goodland, KS

Home | Current Version | Previous Version | Graphics & Text | Print | Product List | Glossary On
Versions: 1 2 3 4 5 6 7 8 9 10 11 12 13 14 15 16 17 18 19 20 21 22 23 24 25 26 27 28 29 30 31 32 33 34 35 36 37 38 39 40 41 42 43 44 45 46 47 48 49 50
000
ASUS43 KGLD 270559
RWRGLD

GOODLAND FORECAST AREA HOURLY WEATHER ROUNDUP
NATIONAL WEATHER SERVICE GOODLAND KS
1200 AM MDT WED MAY 27 2015

...OFFICIAL OBSERVATIONS...

CITY           SKY/WX    TMP DP  RH WIND       PRES   REMARKS
GOODLAND KS    CLEAR     54  51  90 SE6       30.07R
HILL CITY KS   CLEAR     53  50  89 CALM      30.05R
IMPERIAL NEB   CLEAR     53  48  83 SE7       30.05R
MCCOOK NEB     CLEAR     56  48  74 CALM      30.04R
AKRON CO       PTCLDY    52  50  93 SE9       30.07F
BURLINGTON CO  PTCLDY    53  49  86 SE10      30.08R
LIMON CO       LGT RAIN  53  48  83 SW8       30.12F
$$

...UNOFFICIAL OBSERVATIONS...

CITY           SKY/WX    TMP DP  RH WIND       PRES   REMARKS
COLBY KS       CLEAR     55  54  94 SE7       30.08R
GOVE KS          N/A     56  32  40 MISG        N/A
LENORA KS        N/A     58  32  37 MISG        N/A
NORTON KS      CLEAR     54  45  71 CALM      30.04R
SHARON SPRINGS   N/A     56  53  90 MISG        N/A
TRENTON NEB      N/A     54  32  43 SE6         N/A
KIT CARSON CO    N/A     57  51  81 MISG        N/A
$$


USA.gov is the U.S. government's official web portal to all federal, state and local government web resources and services.